Watersmeet, MI

3:57 AM CST on December 07, 2016 (GMT -0600)
Kings Land O'Lakes

Weather History for KLNL - October, 2012

Change the Weather History Date:

Wednesday, October 3, 2012

  Actual Average (KEGV) Record (KEGV)
Temperature  
Mean Temperature 50 °F -  
Max Temperature 69 °F 61 °F 80 °F (1992)
Min Temperature 32 °F 37 °F 21 °F (1999)
Degree Days  
Heating Degree Days 14    
Moisture  
Dew Point 40 °F    
Average Humidity 78    
Maximum Humidity 100    
Minimum Humidity 31    
Precipitation  
Precipitation 0.00 in - - ()
Sea Level Pressure  
Sea Level Pressure 29.97 in    
Wind  
Wind Speed 1 mph (South)    
Max Wind Speed 8 mph    
Max Gust Speed -    
Visibility 7 miles    
Events Fog    
Averages and records for this station are not official NWS values.
T = Trace of Precipitation, MM = Missing Value Source: NWS Daily Summary

Daily Weather History Graph

Daily Weather History Graph

Search for Another Location

Airport or City:

Trip Planner

Search our weather history database for the weather conditions in past years. The results will help you decide how hot, cold, wet, or windy it might be!

Date:

Astronomy

Oct. 03, 2012 Rise Set
Actual Time 6:58 AM CDT 6:32 PM CDT
Civil Twilight 6:28 AM CDT 7:01 PM CDT
Nautical Twilight 5:53 AM CDT 7:36 PM CDT
Astronomical Twilight 5:18 AM CDT 8:11 PM CDT
Moon 8:10 PM CDT (10/3) 10:35 AM CDT (10/3)
Length of Visible Light 12h 33m
Length of Day
11h 33m
Waning Gibbous, 88% of the Moon is Illuminated
Oct 3
Waning Gibbous
Oct 8
Last Quarter
Oct 15
New
Oct 21
First Quarter
Oct 29
Full

Hourly Weather History & Observations

Time (CDT) Temp. Dew Point Humidity Pressure Visibility Wind Dir Wind Speed Gust Speed Precip Events Conditions
12:15 AM 33.8 °F 33.8 °F 100% 29.95 in 10.0 mi Calm Calm - N/A   Clear
12:35 AM 33.8 °F 33.8 °F 100% 29.95 in 10.0 mi Calm Calm - N/A   Clear
12:55 AM 35.6 °F 35.6 °F 100% 29.95 in 10.0 mi Calm Calm - N/A   Clear
1:15 AM 35.6 °F 33.8 °F 93% 29.96 in 7.0 mi Calm Calm - N/A   Clear
1:35 AM 33.8 °F 33.8 °F 100% 29.96 in 10.0 mi Calm Calm - N/A   Clear
1:55 AM 33.8 °F 33.8 °F 100% 29.97 in 7.0 mi Calm Calm - N/A   Clear
2:15 AM 33.8 °F 33.8 °F 100% 29.97 in 0.8 mi Calm Calm - N/A   Mist
2:35 AM 33.8 °F 33.8 °F 100% 29.97 in 1.0 mi Calm Calm - N/A   Mist
2:55 AM 32.0 °F 32.0 °F 100% 29.97 in 1.0 mi Calm Calm - N/A   Mostly Cloudy
3:15 AM 32.0 °F 32.0 °F 100% 29.97 in 10.0 mi Calm Calm - N/A   Mostly Cloudy
3:35 AM 32.0 °F 32.0 °F 100% 29.97 in 0.5 mi Calm Calm - N/A Fog Fog
3:55 AM 33.8 °F 33.8 °F 100% 29.97 in 0.2 mi Calm Calm - N/A Fog Fog
4:15 AM 33.8 °F 33.8 °F 100% 29.97 in 0.2 mi Calm Calm - N/A Fog Fog
4:35 AM 35.6 °F 33.8 °F 93% 29.97 in 0.2 mi Calm Calm - N/A Fog Fog
4:55 AM 33.8 °F 33.8 °F 100% 29.97 in 0.2 mi Calm Calm - N/A Fog Fog
5:15 AM 33.8 °F 33.8 °F 100% 29.97 in 0.2 mi Calm Calm - N/A Fog Fog
5:35 AM 33.8 °F 33.8 °F 100% 29.97 in 0.2 mi Calm Calm - N/A Fog Fog
5:55 AM 33.8 °F 33.8 °F 100% 29.98 in 0.2 mi Calm Calm - N/A Fog Fog
6:15 AM 33.8 °F 33.8 °F 100% 29.98 in 0.2 mi Calm Calm - N/A Fog Fog
6:35 AM 33.8 °F 33.8 °F 100% 29.98 in 0.2 mi Calm Calm - N/A Fog Fog
6:55 AM 33.8 °F 33.8 °F 100% 29.98 in 0.2 mi Calm Calm - N/A Fog Fog
7:15 AM 33.8 °F 33.8 °F 100% 29.98 in 0.2 mi Calm Calm - N/A Fog Fog
7:35 AM 33.8 °F 33.8 °F 100% 29.98 in 0.2 mi Calm Calm - N/A Fog Fog
7:55 AM 35.6 °F 35.6 °F 100% 29.98 in 0.2 mi Calm Calm - N/A Fog Fog
8:15 AM 37.4 °F 37.4 °F 100% 29.99 in 0.2 mi Calm Calm - N/A Fog Fog
8:35 AM 42.8 °F 42.8 °F 100% 29.99 in 7.0 mi Calm Calm - N/A   Clear
8:55 AM 46.4 °F 46.4 °F 100% 30.00 in 10.0 mi Calm Calm - N/A   Clear
9:15 AM 48.2 °F 48.2 °F 100% 30.00 in 10.0 mi South 3.5 mph - N/A   Clear
9:35 AM 50.0 °F 50.0 °F 100% 30.00 in 10.0 mi SSW 3.5 mph - N/A   Clear
9:55 AM 51.8 °F 51.8 °F 100% 30.00 in 10.0 mi SW 5.8 mph - N/A   Clear
10:15 AM 57.2 °F 50.0 °F 77% 30.00 in 10.0 mi SW 6.9 mph - N/A   Clear
10:35 AM 59.0 °F 50.0 °F 72% 30.00 in 10.0 mi SW 5.8 mph - N/A   Clear
10:55 AM 60.8 °F 50.0 °F 68% 30.00 in 10.0 mi SW 5.8 mph - N/A   Clear
11:15 AM 62.6 °F 50.0 °F 63% 29.99 in 10.0 mi WSW 4.6 mph - N/A   Clear
11:35 AM 64.4 °F 50.0 °F 59% 29.99 in 10.0 mi SSW 5.8 mph - N/A   Clear
11:55 AM 64.4 °F 48.2 °F 56% 29.99 in 10.0 mi South 4.6 mph - N/A   Clear
12:15 PM 66.2 °F 48.2 °F 52% 29.98 in 10.0 mi West 6.9 mph - N/A   Clear
12:35 PM 68.0 °F 46.4 °F 46% 29.97 in 10.0 mi WSW 5.8 mph - N/A   Scattered Clouds
12:55 PM 68.0 °F 42.8 °F 40% 29.96 in 10.0 mi Calm Calm - N/A   Clear
1:15 PM 69.8 °F 42.8 °F 38% 29.96 in 10.0 mi SSW 6.9 mph - N/A   Clear
1:35 PM 68.0 °F 42.8 °F 40% 29.95 in 10.0 mi South 8.1 mph - N/A   Clear
1:55 PM 69.8 °F 39.2 °F 33% 29.95 in 10.0 mi SE 4.6 mph - N/A   Clear
2:15 PM 69.8 °F 41.0 °F 35% 29.95 in 10.0 mi Calm Calm - N/A   Clear
2:35 PM 69.8 °F 37.4 °F 31% 29.95 in 10.0 mi SSE 3.5 mph - N/A   Clear
2:55 PM 69.8 °F 39.2 °F 33% 29.95 in 10.0 mi SSW 3.5 mph - N/A   Clear
3:15 PM 69.8 °F 41.0 °F 35% 29.94 in 10.0 mi SW 3.5 mph - N/A   Clear
3:35 PM 69.8 °F 41.0 °F 35% 29.94 in 10.0 mi SSW 3.5 mph - N/A   Clear
3:55 PM 69.8 °F 41.0 °F 35% 29.94 in 10.0 mi SE 4.6 mph - N/A   Clear
4:15 PM 69.8 °F 41.0 °F 35% 29.94 in 10.0 mi SE 6.9 mph - N/A   Clear
4:35 PM 69.8 °F 39.2 °F 33% 29.94 in 10.0 mi SE 4.6 mph - N/A   Clear
4:55 PM 69.8 °F 39.2 °F 33% 29.94 in 10.0 mi ESE 4.6 mph - N/A   Clear
5:15 PM 69.8 °F 37.4 °F 31% 29.95 in 10.0 mi ESE 4.6 mph - N/A   Clear
5:35 PM 69.8 °F 37.4 °F 31% 29.95 in 10.0 mi SSE 3.5 mph - N/A   Clear
5:55 PM 68.0 °F 41.0 °F 37% 29.95 in 10.0 mi SSE 3.5 mph - N/A   Clear
6:15 PM 60.8 °F 46.4 °F 59% 29.95 in 10.0 mi Calm Calm - N/A   Clear
6:35 PM 57.2 °F 46.4 °F 67% 29.95 in 10.0 mi Calm Calm - N/A   Clear
6:55 PM 53.6 °F 46.4 °F 77% 29.96 in 10.0 mi Calm Calm - N/A   Clear
7:15 PM 51.8 °F 44.6 °F 76% 29.96 in 10.0 mi Calm Calm - N/A   Clear
7:35 PM 50.0 °F 44.6 °F 82% 29.96 in 10.0 mi Calm Calm - N/A   Clear
7:55 PM 48.2 °F 44.6 °F 87% 29.97 in 10.0 mi SE 4.6 mph - N/A   Clear
8:15 PM 46.4 °F 42.8 °F 87% 29.97 in 10.0 mi Calm Calm - N/A   Clear
8:35 PM 44.6 °F 42.8 °F 93% 29.98 in 10.0 mi Calm Calm - N/A   Clear
8:55 PM 44.6 °F 42.8 °F 93% 29.98 in 10.0 mi Calm Calm - N/A   Clear
9:15 PM 44.6 °F 42.8 °F 93% 29.98 in 10.0 mi Calm Calm - N/A   Clear
9:35 PM 42.8 °F 42.8 °F 100% 29.98 in 10.0 mi Calm Calm - N/A   Clear
9:55 PM 42.8 °F 41.0 °F 93% 29.99 in 10.0 mi Calm Calm - N/A   Clear
10:15 PM 42.8 °F 41.0 °F 93% 29.99 in 10.0 mi Calm Calm - N/A   Clear
10:35 PM 41.0 °F 41.0 °F 100% 29.99 in 10.0 mi Calm Calm - N/A   Clear
10:55 PM 41.0 °F 41.0 °F 100% 29.99 in 10.0 mi Calm Calm - N/A   Clear
11:15 PM 41.0 °F 39.2 °F 93% 29.98 in 10.0 mi Calm Calm - N/A   Clear
11:35 PM 39.2 °F 37.4 °F 93% 29.98 in 7.0 mi Calm Calm - N/A   Clear
11:55 PM 37.4 °F 37.4 °F 100% 29.98 in 7.0 mi Calm Calm - N/A   Clear